Location: ???? ????
(41.4149°N, 22.8816°E)
Time: 15:04:43
(UTC+00:00)

Cosmos 2221 Rocket - Pass Details

Date: 14 July 2020
Orbit: 619 x 649 km, 82.5° (Epoch: 04 August)

Event Time Altitude Azimuth Distance (km) Brightness Sun altitude
Rises 00:33:49 0° 353° (N) 2,907 7.8 -21.1°
Reaches altitude 10° 00:36:03 10° 354° (N) 1,995 6.9 -20.9°
Maximum altitude 00:40:28 80° 81° (E) 634 3.6 -20.5°
Enters shadow 00:42:00 40° 164° (SSE) 911 4.1 -20.4°
